Weather History for Vitoria, Spain

Change the Weather History Date:

Thursday, March 28, 2013

  Actual Average Record
Temperature  
Mean Temperature 50 °F -  
Max Temperature 55 °F 60 °F 71 °F (2012)
Min Temperature 46 °F 38 °F 28 °F (2002)
Degree Days  
Heating Degree Days 14    
Moisture  
Dew Point 47 °F    
Average Humidity 94    
Maximum Humidity 100    
Minimum Humidity 82    
Precipitation  
Precipitation 0.00 in - - ()
Sea Level Pressure  
Sea Level Pressure 29.71 in    
Wind  
Wind Speed 2 mph ()    
Max Wind Speed 8 mph    
Max Gust Speed -    
Visibility 6.0 miles    
Events Rain    
Averages and records for this station are not official NWS values.
T = Trace of Precipitation, MM = Missing Value Source: Averaged Metar Reports

Daily Weather History Graph

Daily Weather History Graph

Search for Another Location

Airport:

Trip Planner

Search our weather history database for the weather conditions in past years. The results will help you decide how hot, cold, wet, or windy it might be!

Date:

Astronomy

Mar. 28, 2013 Rise Set
Actual Time 6:59 AM CET 7:32 PM CET
Civil Twilight 6:31 AM CET 8:01 PM CET
Nautical Twilight 5:58 AM CET 8:34 PM CET
Astronomical Twilight 5:23 AM CET 9:09 PM CET
Moon 9:11 PM CET 7:16 AM CET
Length of Visible Light 13h 29m
Length of Day
12h 32m
Full, 99% of the Moon is Illuminated
Mar 28
Full
Apr 3
Last Quarter
Apr 10
New
Apr 18
First Quarter
Apr 25
Full

Hourly Weather History & Observations

Time (CET) Temp. Windchill Dew Point Humidity Pressure Visibility Wind Dir Wind Speed Gust Speed Precip Events Conditions
12:00 AM 48.2 °F - 48.2 °F 100% 29.62 in 6.2 mi Calm Calm - N/A   Mostly Cloudy
12:30 AM 48.2 °F - 48.2 °F 100% 29.62 in 6.2 mi Calm Calm - N/A   Mostly Cloudy
1:00 AM 48.2 °F - 46.4 °F 93% 29.62 in 6.2 mi NE 1.2 mph - N/A   Mostly Cloudy
1:30 AM 48.2 °F - 48.2 °F 100% 29.62 in 6.2 mi ENE 3.5 mph - N/A   Mostly Cloudy
2:00 AM 46.4 °F 44.3 °F 46.4 °F 100% 29.62 in 6.2 mi NE 4.6 mph - N/A   Mostly Cloudy
2:30 AM 46.4 °F 44.3 °F 46.4 °F 100% 29.62 in 6.2 mi NE 4.6 mph - N/A   Mostly Cloudy
3:00 AM 46.4 °F 45.2 °F 46.4 °F 100% 29.62 in 6.2 mi ENE 3.5 mph - N/A   Mostly Cloudy
3:30 AM 46.4 °F - 46.4 °F 100% 29.62 in 6.2 mi ENE 2.3 mph - N/A   Mostly Cloudy
4:00 AM 46.4 °F - 46.4 °F 100% 29.62 in 6.2 mi Variable 1.2 mph - N/A   Mostly Cloudy
4:30 AM 46.4 °F - 46.4 °F 100% 29.62 in 6.2 mi East 1.2 mph - N/A   Mostly Cloudy
5:00 AM 46.4 °F - 46.4 °F 100% 29.62 in 6.2 mi ENE 1.2 mph - N/A   Mostly Cloudy
5:30 AM 46.4 °F - 46.4 °F 100% 29.62 in 6.2 mi Calm Calm - N/A   Mostly Cloudy
6:00 AM 46.4 °F - 46.4 °F 100% 29.62 in 6.2 mi Calm Calm - N/A   Mostly Cloudy
6:30 AM 46.4 °F 45.2 °F 46.4 °F 100% 29.65 in 6.2 mi North 3.5 mph - N/A Rain Light Rain
7:00 AM 46.4 °F - 44.6 °F 93% 29.65 in 5.0 mi Variable 2.3 mph - N/A   Mostly Cloudy
7:30 AM 46.4 °F - 44.6 °F 93% 29.65 in 5.0 mi Calm Calm - N/A   Mostly Cloudy
8:00 AM 46.4 °F - 44.6 °F 93% 29.68 in 6.2 mi Calm Calm - N/A Rain Light Rain
8:30 AM 46.4 °F - 44.6 °F 93% 29.68 in 6.2 mi Calm Calm - N/A Rain Light Rain
9:00 AM 46.4 °F - 44.6 °F 93% 29.71 in 6.2 mi Calm Calm - N/A Rain Light Rain
9:30 AM 46.4 °F - 44.6 °F 93% 29.71 in 6.2 mi Calm Calm - N/A   Mostly Cloudy
10:00 AM 46.4 °F - 44.6 °F 93% 29.71 in 6.2 mi ENE 2.3 mph - N/A   Mostly Cloudy
10:30 AM 46.4 °F 45.2 °F 46.4 °F 100% 29.71 in 6.2 mi ENE 3.5 mph - N/A   Mostly Cloudy
11:00 AM 46.4 °F 42.4 °F 44.6 °F 93% 29.74 in 6.2 mi NE 8.1 mph - N/A   Mostly Cloudy
11:30 AM 46.4 °F 42.9 °F 44.6 °F 93% 29.74 in 6.2 mi NE 6.9 mph - N/A   Mostly Cloudy
12:00 PM 46.4 °F 42.4 °F 44.6 °F 93% 29.74 in 6.2 mi NE 8.1 mph - N/A   Mostly Cloudy
12:30 PM 46.4 °F 43.5 °F 44.6 °F 93% 29.77 in 6.2 mi NE 5.8 mph - N/A   Mostly Cloudy
1:00 PM 46.4 °F 45.2 °F 44.6 °F 93% 29.77 in 5.6 mi NE 3.5 mph - N/A   Mostly Cloudy
1:30 PM 48.2 °F - 46.4 °F 93% 29.77 in 5.0 mi Variable 2.3 mph - N/A   Overcast
2:00 PM 48.2 °F - 44.6 °F 87% 29.77 in 5.6 mi Variable 2.3 mph - N/A   Overcast
2:30 PM 48.2 °F - 46.4 °F 93% 29.77 in 5.6 mi Variable 1.2 mph - N/A   Overcast
3:00 PM 50.0 °F - 46.4 °F 87% 29.74 in 5.6 mi Variable 1.2 mph - N/A   Overcast
3:30 PM 51.8 °F - 46.4 °F 82% 29.74 in 5.6 mi Calm Calm - N/A   Mostly Cloudy
4:00 PM 51.8 °F - 48.2 °F 88% 29.74 in 5.6 mi Calm Calm - N/A   Mostly Cloudy
4:30 PM 53.6 °F - 48.2 °F 82% 29.74 in 6.2 mi Calm Calm - N/A   Scattered Clouds
5:30 PM 53.6 °F - 48.2 °F 82% 29.74 in 6.2 mi Calm Calm - N/A   Scattered Clouds
6:00 PM 53.6 °F - 48.2 °F 82% 29.74 in 6.2 mi WNW 1.2 mph - N/A   Scattered Clouds
6:30 PM 55.4 °F - 50.0 °F 82% 29.74 in 6.2 mi NE 1.2 mph - N/A   Scattered Clouds
7:00 PM 53.6 °F - 50.0 °F 88% 29.74 in 6.2 mi North 3.5 mph - N/A   Scattered Clouds
7:30 PM 51.8 °F - 50.0 °F 94% 29.77 in 6.2 mi NNE 6.9 mph - N/A   Scattered Clouds
8:00 PM 50.0 °F - 48.2 °F 94% 29.77 in 6.2 mi NNE 8.1 mph - N/A   Scattered Clouds
8:30 PM 50.0 °F - 48.2 °F 94% 29.80 in 6.2 mi NE 5.8 mph - N/A   Scattered Clouds
9:00 PM 50.0 °F - 48.2 °F 94% 29.80 in 6.2 mi ENE 4.6 mph - N/A   Scattered Clouds
9:30 PM 50.0 °F - 48.2 °F 94% 29.80 in 6.2 mi ENE 4.6 mph - N/A   Scattered Clouds
10:00 PM 50.0 °F - 48.2 °F 94% 29.80 in 6.2 mi ENE 4.6 mph - N/A   Scattered Clouds
10:30 PM 48.2 °F - 48.2 °F 100% 29.80 in 6.2 mi NE 3.5 mph - N/A   Scattered Clouds
11:00 PM 48.2 °F - 48.2 °F 100% 29.77 in 6.2 mi East 3.5 mph - N/A   Scattered Clouds
11:30 PM 51.8 °F - 48.2 °F 88% 29.74 in 6.2 mi SE 3.5 mph - N/A   Scattered Clouds